カタログに戻る

COSMOS 1823 DEB

運用中LEO
NORAD 18805·DEBRIS·🇷🇺 Russia

打ち上げ Feb 20, 1987 から Plesetsk Cosmodrome

Loading…

次のパス (今後24時間)

TLE

最新Source: Space-Track

元期: Sep 14, 2026, 22:26 UTC

1 18805U 87020AR  26257.93481575  .00000017  00000-0  24124-3 0  9997
2 18805  73.7118 340.9062 0021206 248.3271 229.7026 12.43343903756034

AllMySatでCOSMOS 1823 DEBをリアルタイム追跡

Download on the App Store